Pittsfield, MA

2:36 AM EDT on October 23, 2019 (GMT -0400)
Pittsfield Municipal

Weather History for KPSF - August, 2019

Change the Weather History Date:

Saturday, August 17, 2019

  Actual Average Record
Temperature  
Mean Temperature 73 °F 67 °F  
Max Temperature 84 °F 77 °F 92 °F (1935)
Min Temperature 62 °F 56 °F 40 °F (1927)
Degree Days  
Heating Degree Days 0 1  
Month to date heating degree days 2 17  
Since 1 June heating degree days 69 149  
Since 1 July heating degree days 2 48  
Cooling Degree Days 8 3  
Month to date cooling degree days 69 63  
Year to date cooling degree days 345 240  
Since 1 June cooling degree days 339 227  
Growing Degree Days 22 (Base 50)    
Moisture  
Dew Point 65 °F    
Average Humidity 76    
Maximum Humidity 93    
Minimum Humidity 58    
Precipitation  
Precipitation 0.21 in 0.13 in 2.69 in (2018)
Month to date precipitation 0.98 2.31  
Year to date precipitation 27.12 28.00  
Sea Level Pressure  
Sea Level Pressure 29.99 in    
Wind  
Wind Speed 5 mph (South)    
Max Wind Speed 24 mph    
Max Gust Speed 36 mph    
Visibility 9 miles    
Events Rain , Thunderstorm    
T = Trace of Precipitation, MM = Missing Value Source: NWS Daily Summary

Daily Weather History Graph

Daily Weather History Graph

Search for Another Location

Airport or City:

Astronomy

Aug. 17, 2019 Rise Set
Actual Time 6:02 AM EDT 7:51 PM EDT
Civil Twilight 5:31 AM EDT 8:21 PM EDT
Nautical Twilight 4:55 AM EDT 8:58 PM EDT
Astronomical Twilight 4:15 AM EDT 9:37 PM EDT
Moon 9:16 PM EDT (8/17) 7:49 AM EDT (8/17)
Length of Visible Light 14h 49m
Length of Day
13h 49m
Waning Gibbous, 96% of the Moon is Illuminated
Aug 17
Waning Gibbous
Aug 23
Last Quarter
Aug 30
New
Sep 5
First Quarter
Sep 14
Full

Hourly Weather History & Observations

Time (EDT) Temp. Heat Index Dew Point Humidity Pressure Visibility Wind Dir Wind Speed Gust Speed Precip Events Conditions
12:54 AM 70.0 °F - 64.0 °F 81% 29.98 in 10.0 mi Calm Calm - N/A   Mostly Cloudy
1:54 AM 69.1 °F - 64.9 °F 87% 29.99 in 10.0 mi Calm Calm - N/A   Overcast
2:54 AM 69.1 °F - 64.0 °F 84% 29.98 in 10.0 mi Calm Calm - N/A   Overcast
3:43 AM 69.1 °F - 64.9 °F 87% 30.06 in 10.0 mi South 4.6 mph - N/A   Overcast
3:54 AM 69.1 °F - 64.9 °F 87% 29.97 in 10.0 mi South 6.9 mph - N/A   Overcast
4:03 AM 69.1 °F - 64.9 °F 87% 30.06 in 10.0 mi South 4.6 mph - N/A   Overcast
4:23 AM 69.1 °F - 64.9 °F 87% 30.05 in 10.0 mi SSE 6.9 mph - N/A   Overcast
4:46 AM 69.1 °F - 64.9 °F 87% 30.05 in 10.0 mi West 3.5 mph - N/A   Overcast
4:54 AM 69.1 °F - 64.9 °F 87% 29.96 in 10.0 mi South 4.6 mph - N/A   Overcast
5:50 AM 69.8 °F - 64.4 °F 83% 30.05 in 10.0 mi Calm Calm - N/A   Overcast
5:54 AM 70.0 °F - 64.9 °F 84% 29.97 in 10.0 mi Calm Calm - N/A   Overcast
6:54 AM 70.0 °F - 64.9 °F 84% 29.97 in 10.0 mi South 6.9 mph - N/A   Overcast
7:14 AM 70.0 °F - 64.9 °F 84% 30.05 in 10.0 mi SSE 8.1 mph - N/A   Overcast
7:54 AM 71.1 °F - 66.0 °F 84% 29.98 in 10.0 mi Variable 3.5 mph - N/A   Overcast
8:30 AM 72.0 °F - 66.0 °F 81% 30.05 in 10.0 mi SSE 5.8 mph - N/A   Overcast
8:54 AM 72.0 °F - 66.0 °F 81% 29.98 in 10.0 mi Variable 5.8 mph - N/A   Overcast
9:03 AM 72.0 °F - 66.0 °F 81% 30.05 in 10.0 mi South 6.9 mph - N/A   Overcast
9:54 AM 73.0 °F - 66.0 °F 79% 29.98 in 10.0 mi Variable 4.6 mph - N/A   Overcast
10:19 AM 75.0 °F - 66.9 °F 76% 30.05 in 10.0 mi Variable 3.5 mph - N/A   Overcast
10:54 AM 75.9 °F - 66.9 °F 74% 29.98 in 10.0 mi South 5.8 mph - N/A   Overcast
11:54 AM 75.9 °F - 66.9 °F 74% 29.98 in 10.0 mi South 3.5 mph - N/A   Overcast
12:25 PM 80.1 °F 82.7 °F 68.0 °F 67% 30.05 in 10.0 mi SSW 9.2 mph - N/A   Scattered Clouds
12:54 PM 80.1 °F 82.7 °F 68.0 °F 67% 29.96 in 10.0 mi South 11.5 mph - N/A   Scattered Clouds
1:54 PM 81.0 °F 83.0 °F 66.0 °F 60% 29.96 in 10.0 mi SSW 10.4 mph - N/A   Scattered Clouds
2:54 PM 82.9 °F 85.0 °F 66.0 °F 56% 29.93 in 10.0 mi SSW 9.2 mph - N/A   Partly Cloudy
3:54 PM 81.0 °F 83.0 °F 66.0 °F 60% 29.91 in 10.0 mi Variable 6.9 mph - N/A   Mostly Cloudy
5:54 PM 81.0 °F 82.7 °F 64.9 °F 58% 29.88 in 10.0 mi SSW 8.1 mph - N/A   Partly Cloudy
6:54 PM 73.9 °F - 63.0 °F 68% 29.91 in 10.0 mi NW 15.0 mph 27.6 mph N/A   Mostly Cloudy
7:54 PM 66.0 °F - 62.1 °F 87% 29.96 in 10.0 mi South 5.8 mph - 0.04 in Rain Light Rain
8:23 PM 66.9 °F - 62.1 °F 84% 30.03 in 6.0 mi ESE 3.5 mph - 0.05 in Rain , Thunderstorm Light Thunderstorms and Rain
8:36 PM 66.0 °F - 63.0 °F 90% 30.03 in 7.0 mi SE 5.8 mph - 0.07 in Rain Light Rain
8:54 PM 66.0 °F - 63.0 °F 90% 29.96 in 5.0 mi SE 3.5 mph - 0.12 in Rain Rain
9:46 PM 66.0 °F - 64.0 °F 93% 30.01 in 10.0 mi Calm Calm - 0.05 in   Mostly Cloudy
9:54 PM 64.9 °F - 63.0 °F 93% 29.94 in 10.0 mi Calm Calm - 0.05 in   Mostly Cloudy
10:12 PM 64.9 °F - 63.0 °F 93% 30.01 in 10.0 mi South 4.6 mph - N/A   Mostly Cloudy
10:19 PM 64.9 °F - 63.0 °F 93% 30.02 in 10.0 mi West 4.6 mph - N/A   Partly Cloudy
10:54 PM 64.9 °F - 63.0 °F 93% 29.94 in 9.0 mi Calm Calm - N/A   Partly Cloudy
11:35 PM 64.0 °F - 62.1 °F 93% 30.02 in 1.8 mi ESE 3.5 mph - N/A   Partly Cloudy
11:48 PM 62.6 °F - 60.8 °F 94% 30.02 in 3.0 mi Calm Calm - N/A   Partly Cloudy
11:54 PM 63.0 °F - 61.0 °F 93% 29.95 in 4.0 mi NNW 3.5 mph - N/A   Partly Cloudy
11:57 PM 63.0 °F - 61.0 °F 93% 30.02 in 1.8 mi North 3.5 mph - N/A   Scattered Clouds